AirNav   ProFlight Series 2 Aviation Headset
 
 997 users online  

E48 Upton County Airport
Mc Camey, Texas, USA

GOING TO MC CAMEY?


FAA INFORMATION EFFECTIVE 16 JULY 2020

Location

FAA Identifier: E48
Lat/Long: 31-07-30.5340N 102-13-31.4940W
31-07.508900N 102-13.524900W
31.1251483,-102.2254150
(estimated)
Elevation: 2433 ft. / 741.6 m (surveyed)
Variation: 09E (1985)
From city: 1 mile SW of MC CAMEY, TX
Time zone: UTC -5 (UTC -6 during Standard Time)
Zip code: 79752

Airport Operations

Airport use: Open to the public
Activation date: 04/1941
Control tower: no
ARTCC: ALBUQUERQUE CENTER
FSS: SAN ANGELO FLIGHT SERVICE STATION
NOTAMs facility: SJT (NOTAM-D service available)
Attendance: UNATNDD
Wind indicator: lighted
Segmented circle: yes
Lights: SS-SR
Beacon: white-green (lighted land airport)
Operates sunset to sunrise.

Airport Communications

CTAF: 122.9

Nearby radio navigation aids

VOR radial/distance  VOR name  Freq  Var
FSTr064/39.9FORT STOCKTON VORTAC116.9011E

Airport Services

Parking: tiedowns
Bottled oxygen: NONE
Bulk oxygen: NONE

Runway Information

Runway 10/28

Dimensions: 4100 x 75 ft. / 1250 x 23 m
Surface: asphalt, in excellent condition
Weight bearing capacity: 
Single wheel: 30.0
Runway edge lights: medium intensity
MIRL RY 10/28 PRESET TO LOW, TO INCR INTST - CTAF.
RUNWAY 10  RUNWAY 28
Traffic pattern: rightleft
Markings: basic, in good conditionbasic, in good condition
Visual slope indicator: 2-light PAPI on left2-light PAPI on left
Obstructions: 9 ft. fence, 400 ft. from runway, 22:1 slope to clear35 ft. trees, 1476 ft. from runway, 77 ft. right of centerline, 36:1 slope to clear

Airport Ownership and Management from official FAA records

Ownership: Publicly-owned
Owner: UPTON COUNTY
CO COURT HOUSE/PO BOX 482
RANKIN, TX 79778
Phone 432-693-2321
Manager: BOB MARTIN
PO BOX 824
MC CAMEY, TX 79752
Phone (432) 413-8585

Airport Operational Statistics

Aircraft based on the field: 1
Single engine airplanes: 1
    
Aircraft operations: avg 26/month *
68% local general aviation
32% transient general aviation
* for 12-month period ending 25 January 2018

Additional Remarks

FOR CD CTC ALBUQUERQUE ARTCC AT 505-856-4861.

Instrument Procedures

There are no published instrument procedures at E48.

Some nearby airports with instrument procedures:

KFST - Fort Stockton-Pecos County Airport (38 nm W)
E41 - Reagan County Airport (39 nm E)
E01 - Roy Hurd Memorial Airport (44 nm NW)
KODO - Odessa Airport-Schlemeyer Field (48 nm N)
KMAF - Midland International Air and Space Port Airport (49 nm N)
 
Loc | Ops | Rwys | IFR | FBO | Links
Com | Nav | Svcs | Stats | Notes

Chandler Aviation LLC
 
Area around E48 (Upton County Airport)
 
Road maps at: MapQuest Bing Google
 
Aerial photo
WARNING: Photo may not be current or correct
Aerial photo of E48 (Upton County Airport)
Photo by Bill Darby
Photo taken 28-Nov-2014
looking northwest.

Do you have a better or more recent aerial photo of Upton County Airport that you would like to share? If so, please send us your photo.

 
Sectional chart

 
Airport distance calculator
Flying to Upton County Airport? Find the distance to fly.

From to E48

Sunrise and sunset
Times for 09-Aug-2020
 Local
(UTC-5)
 Zulu
(UTC)
Morning civil twilight06:4711:47
Sunrise07:1312:13
Sunset20:3601:36
Evening civil twilight21:0202:02

Current date and time
Zulu (UTC)  09-Aug-2020 23:20:08
Local (UTC-5)  09-Aug-2020 18:20:08
 
METAR
KFST 
38nm W 
092253Z AUTO 16015G22KT 10SM CLR 36/13 A2998 RMK AO2 SLP097 T03610128
KE41 
39nm E 
092255Z AUTO 16013G23KT 10SM CLR 35/14 A3002 RMK AO2 T03480137
KODO 
48nm N 
092253Z AUTO 17014G22KT 10SM CLR 37/12 A3000 RMK AO2 SLP104 T03670117
KMAF 
50nm N 
092253Z 15015G21KT 10SM CLR 36/12 A2999 RMK AO2 SLP101 T03610122
TAF
KFST 
38nm W 
091720Z 0918/1018 15013G19KT P6SM FEW250 FM100700 15010KT P6SM SKC
NOTAMs
Click for the latest NOTAMs
NOTAMs are issued by the DoD/FAA and will open in a separate window not controlled by AirNav.

 

 
 

Would you like to see your business listed on this page?

 If your business provides an interesting product or service to pilots, flight crews, aircraft, or users of the Upton County Airport, you should consider listing it here.  To start the listing process, click on the button below
 
Add a business
 

Other Pages about Upton County Airport

Update a link
 
Copyright © AirNav, LLC. All rights reserved. Privacy Policy  Contact